Weather in Verkh-Kamyshenka

Russia / Altai Krai     53°35′52″N   84°47′50″E
temp.,
°C
wind,
m/s
gust,
m/s
humid.,
%
clouds,
%
prec.,
mm/h
press.,
hPa
HPBL,
m
12 may, wed
wed1201:00+10nne3653100 0.0 101499
04:00+8nne3659100 0.0 101390
07:00+9nne3763100 0.0 1014159
10:00+15ne4545100 0.0 1014475
13:00+18nne4536100 0.0 10131636
16:00+20ne4527100 0.0 10133124
19:00+19nnw2338100 0.0 1013351
22:00+12ssw126068 0.4 101522
13 may, thu
thu1301:00+11nnw225828 0.5 101512
04:00+10w116069 0.1 101410
07:00+11s116042 0.1 101430
10:00+16wsw334741 0.0 1014666
13:00+19ssw343587 0.0 10132818
16:00+17w024277 0.0 1012690
19:00+15wnw785652 0.0 1012531
22:00+12w3675100 0.3 1014150
14 may, fri
fri1401:00+10w3490100 0.9 1014175
04:00+10nnw479199 0.4 1013229
07:00+10n3789100 0.6 1015366
10:00+9nnw3689100 0.6 1017429
13:00+15nw574429 0.6 10171939
16:00+16nnw883999 0.0 10181870
19:00+14nnw5737100 0.0 10211474
22:00+9nw224899 0.0 102418
15 may, sat
sat1501:00+9wnw234699 0.0 102540
04:00+8w3345100 0.0 102551
07:00+9sw355399 0.0 1025156
10:00+10sw495368 0.0 1025327
13:00+13sw5105270 0.0 1024495
16:00+20wsw71036100 0.0 10221492
19:00+19sw6104823 0.1 1021620
22:00+14sw485982 0.0 1021122
16 may, sun
sun1601:00+13sw51263100 0.2 1019238
04:00+12sw6137311 0.5 1019250
07:00+13sw71576100 1.0 1018330
10:00+18wsw685785 0.4 1017582
13:00+24wsw684639 0.5 10161256
16:00+25w593968 0.0 10142682
19:00+23nw594629 0.0 1014745
22:00+17w236735 0.0 101520